Theta_e
290 290 289 291 290 289 288 288 288 288 289 292 291 289 289 289 289 288 290 292 295 297 299 298 297 296 294 293 293 295 296 296 296 296 296 296 297 298 298 298 299 299 299 300 302 304 308 312 313 313 314 315 316 317 318 318 318 317 318 317 317 317 318 318 318 319 320 320 319 319 320 321 319 319 320 321 321 321 321 322 323 321 320 319 319 318 318
290 290 290 290 289 288 288 287 288 289 289 289 290 289 290 290 290 289 290 293 295 298 296 294 293 294 293 293 294 295 294 294 295 294 294 294 295 296 297 297 298 298 298 299 301 302 304 305 305 306 307 308 311 312 313 315 316 317 316 315 316 315 315 315 315 315 316 317 318 318 319 318 318 319 320 321 322 322 321 322 322 321 321 320 319 318 317
290 290 290 289 289 287 286 287 289 290 290 290 291 291 290 291 292 293 294 293 289 292 293 292 293 293 294 293 292 292 294 295 294 294 294 294 295 295 296 297 297 297 298 298 300 300 301 302 303 303 304 305 307 307 307 308 309 310 311 310 310 309 308 309 309 308 308 309 309 310 311 311 311 313 315 318 319 319 320 321 321 322 321 319 319 318 317
287 290 290 289 289 288 287 286 287 288 288 287 288 288 290 289 290 293 293 291 287 290 293 293 293 293 292 291 292 292 293 294 294 293 294 294 294 295 295 296 296 296 296 297 297 298 300 300 301 302 302 302 303 303 303 303 305 306 306 305 304 304 304 304 304 304 305 304 304 304 305 304 305 307 309 310 311 312 313 314 316 319 320 320 321 321 321
286 289 289 289 289 287 285 284 285 287 289 290 292 292 292 291 291 291 289 292 292 291 293 291 291 291 291 291 291 291 292 293 293 293 293 293 294 294 295 296 296 296 296 297 297 297 298 299 299 300 301 300 300 301 301 301 303 303 303 303 302 303 303 302 303 303 303 303 303 303 303 303 304 304 304 305 306 307 308 309 311 311 312 314 316 318 316
286 286 286 289 286 280 281 287 290 288 287 288 287 287 289 291 293 292 295 293 292 292 293 291 290 289 289 290 292 293 292 292 292 293 294 294 294 295 295 295 296 296 297 297 297 298 298 299 300 301 301 299 299 300 300 300 300 300 301 301 301 301 301 301 302 303 303 302 302 302 302 302 303 303 303 303 304 305 306 307 307 308 309 309 311 312 312
285 287 286 284 279 280 286 291 291 291 291 290 286 290 291 291 293 294 292 292 292 292 292 291 290 290 290 291 290 291 293 294 294 293 293 294 295 295 295 296 296 296 297 297 297 297 298 299 299 299 299 300 300 301 300 299 299 299 299 300 300 300 300 300 301 301 302 302 301 301 302 302 302 301 302 303 302 303 303 304 304 304 305 306 307 308 309
287 285 284 278 278 285 289 291 290 291 293 290 290 288 290 291 292 293 290 291 291 291 290 290 290 289 290 290 290 291 292 292 292 293 294 295 295 295 296 296 297 297 297 297 297 297 299 299 299 298 298 298 298 299 300 299 300 299 299 299 298 298 298 299 300 301 301 301 301 301 301 301 301 301 301 301 301 302 301 301 301 302 303 304 305 305 306
282 283 283 282 285 285 286 285 286 286 283 285 284 283 286 291 293 292 289 289 289 289 290 290 291 291 291 288 288 290 292 292 293 292 293 294 295 296 296 297 297 298 299 298 298 299 298 299 298 298 299 298 298 298 298 298 298 298 299 298 298 298 298 299 300 300 300 300 301 301 300 299 299 300 300 299 299 301 300 299 298 298 298 299 301 303 304
286 284 281 282 281 278 281 286 290 291 290 289 290 287 286 291 293 293 290 288 289 289 290 291 292 293 289 284 285 288 292 294 294 294 294 295 295 296 296 297 298 298 298 299 299 298 298 298 298 298 298 298 297 297 297 298 298 297 297 297 298 298 298 299 299 299 299 299 299 299 299 298 298 299 300 300 299 299 298 297 297 297 298 297 297 298 300
285 283 280 277 277 279 285 285 288 290 290 288 288 286 283 288 292 293 291 289 290 290 290 290 291 291 284 283 284 287 290 293 295 294 294 294 295 295 296 296 296 297 298 298 298 298 298 297 298 299 298 298 297 296 296 296 296 296 296 296 297 297 297 299 298 298 299 299 298 297 298 299 299 299 299 300 301 301 300 298 297 298 297 296 296 297 298
283 282 280 278 281 280 285 287 288 290 291 290 287 281 280 286 290 293 292 290 290 290 288 290 289 287 284 283 285 287 289 291 293 294 293 294 294 294 295 296 297 297 297 297 296 296 296 296 298 298 298 297 297 296 296 297 296 296 296 297 297 298 298 298 298 298 298 298 299 298 298 298 299 299 300 300 299 299 300 299 298 297 297 297 296 295 297
282 281 280 281 282 287 288 287 289 290 290 289 282 278 283 287 290 293 293 292 292 293 291 291 285 284 286 285 287 288 289 290 292 295 295 295 294 293 294 295 296 296 296 296 296 296 296 297 297 297 297 296 295 296 296 295 295 295 296 297 297 297 297 297 297 298 298 298 298 298 298 298 299 299 299 300 300 300 300 299 298 297 296 296 296 296 296
280 281 281 280 282 286 287 289 290 291 288 282 280 285 289 289 292 293 293 291 291 290 289 288 286 285 286 286 286 286 287 288 291 293 295 296 295 295 295 296 296 295 295 296 296 297 297 297 297 297 297 295 295 295 295 294 295 297 297 297 297 297 297 297 297 298 298 298 298 298 299 299 299 299 299 300 300 299 299 300 299 298 298 297 297 297 298
281 281 280 278 275 285 289 288 290 291 285 284 288 288 291 294 293 292 291 291 289 289 286 287 286 286 286 286 286 287 288 289 291 292 293 293 294 295 295 294 295 295 294 295 295 296 297 298 298 298 297 296 296 296 295 296 297 297 297 297 297 297 297 297 297 297 298 298 298 298 298 299 298 298 299 299 299 299 299 299 298 298 299 298 298 298 298
280 279 277 277 283 285 289 287 283 286 288 290 291 291 287 292 293 292 291 290 290 289 288 286 286 287 286 286 287 289 290 291 292 293 293 293 293 294 295 295 295 294 293 294 294 296 297 298 298 298 297 296 296 295 295 297 298 298 297 297 296 296 295 296 296 296 297 298 298 298 298 298 298 298 297 298 298 298 298 298 297 297 298 298 298 297 297
283 281 282 286 288 290 291 290 289 290 292 293 293 293 291 290 291 293 290 289 289 289 288 288 287 287 287 287 288 289 290 292 292 293 293 292 292 293 294 295 295 295 294 294 294 294 296 297 298 298 297 296 295 295 296 297 297 297 297 297 297 296 296 297 297 297 298 298 298 298 298 297 296 297 296 297 296 297 297 297 296 296 296 296 296 296 296
288 288 288 289 289 289 290 291 292 291 292 293 293 292 290 292 292 292 289 289 289 289 290 288 288 287 287 288 289 291 293 293 292 293 293 294 294 294 295 295 295 295 296 296 296 295 295 297 297 298 298 297 296 296 297 297 297 297 297 296 296 296 296 297 297 297 298 298 297 297 297 297 296 296 295 295 295 295 296 296 296 296 295 295 295 296 296
284 280 289 287 287 289 290 291 292 293 293 292 293 292 292 292 292 292 292 291 290 290 290 289 288 287 288 289 291 292 292 292 292 292 293 294 295 295 295 295 295 296 296 295 295 295 295 296 297 297 298 298 298 298 297 298 298 298 297 296 296 296 296 296 297 297 297 297 297 296 297 296 296 296 295 295 295 294 295 295 295 294 294 294 294 294 294
284 283 287 288 290 291 292 292 291 291 292 292 293 293 294 293 293 293 293 292 291 292 290 291 289 289 289 289 290 291 291 291 291 292 293 294 294 295 296 295 296 296 295 295 295 295 295 295 296 297 297 296 297 297 298 298 298 298 297 296 296 296 296 297 296 297 296 291 293 296 295 295 295 295 295 296 295 294 294 294 293 294 294 293 294 294 294
285 287 288 289 291 291 291 292 293 293 293 293 293 294 294 294 293 293 294 294 293 292 292 292 291 290 291 292 293 293 293 292 292 292 293 294 295 294 294 295 296 296 295 295 295 295 294 295 296 296 296 296 296 297 297 297 298 297 296 295 296 296 297 297 296 296 296 296 295 295 295 295 295 295 294 295 295 296 296 296 294 294 294 294 294 296 295
282 284 287 289 285 284 289 291 292 293 294 294 293 294 294 294 293 293 293 293 294 293 293 292 292 291 291 293 293 292 292 292 292 292 293 293 294 294 294 295 295 295 295 296 295 295 294 295 296 296 296 296 296 296 297 297 298 297 297 296 296 296 296 296 296 296 296 295 295 294 295 294 295 296 290 289 292 294 296 292 289 289 289 294 295 296 295
282 288 289 289 291 290 291 291 292 293 294 295 294 293 293 294 294 294 293 292 293 293 293 294 293 292 292 292 292 291 291 291 292 293 293 293 294 294 294 294 294 294 294 295 295 294 294 294 295 295 295 296 296 297 297 297 298 297 297 296 296 296 296 296 294 296 295 295 295 295 295 295 295 295 296 296 289 287 288 289 289 288 288 288 288 288 292
289 291 291 291 291 290 291 291 292 293 294 295 293 293 294 294 294 294 294 294 293 293 293 294 295 294 293 292 292 292 291 291 291 292 293 294 295 295 295 295 294 294 294 294 295 295 295 295 295 296 296 296 296 297 297 297 298 298 297 296 296 295 296 296 294 295 295 295 295 295 295 295 295 294 294 294 296 290 288 289 289 288 288 288 288 288 288
289 291 291 291 293 292 293 293 293 293 293 294 294 294 294 293 293 294 294 293 293 293 293 292 291 293 293 292 293 293 292 292 293 293 292 292 292 294 294 295 295 295 295 296 296 296 296 296 296 296 297 296 296 296 297 297 297 298 297 297 296 296 296 295 295 294 294 295 295 295 295 295 295 295 294 293 293 294 294 288 287 288 288 288 288 288 288
292 291 292 292 292 292 292 291 291 291 291 292 293 293 293 294 293 293 293 293 292 292 292 292 292 291 292 292 292 292 292 292 291 291 293 293 293 293 294 295 296 296 296 295 295 295 295 296 296 296 296 296 296 296 297 297 297 298 297 297 297 297 297 296 296 296 295 295 295 295 295 295 295 295 294 294 294 294 293 294 295 292 288 288 288 288 289
291 293 294 292 292 291 293 292 291 293 291 291 292 292 291 293 292 292 291 291 291 291 292 292 292 291 290 290 290 290 292 292 291 292 292 293 294 294 294 293 294 294 294 295 295 294 293 295 295 295 295 295 295 295 297 297 298 298 297 297 296 290 286 291 296 295 295 295 295 296 295 295 295 294 295 294 294 293 293 292 292 292 295 296 291 288 290
291 290 291 290 289 291 293 293 291 291 291 291 291 291 289 289 291 291 292 291 290 290 290 290 291 291 291 290 291 291 291 292 293 292 292 292 292 292 292 292 293 293 294 294 294 294 294 295 295 295 295 295 294 295 296 298 299 298 297 297 297 297 296 294 296 296 296 296 295 295 295 295 295 293 293 293 293 293 292 293 293 293 293 294 295 291 288
290 290 289 290 292 293 291 291 291 291 290 289 290 289 290 291 291 292 292 291 290 290 290 289 289 290 291 290 291 292 292 292 292 292 293 291 290 290 291 291 292 293 293 293 294 294 294 294 294 294 295 295 294 295 296 298 299 298 298 297 297 297 297 296 296 296 296 295 295 294 290 292 294 295 294 293 293 294 294 293 292 293 293 293 294 295 292
289 289 291 290 291 291 292 290 290 290 289 289 289 289 289 290 291 291 291 290 289 291 291 290 290 290 290 291 291 292 293 293 293 292 291 290 289 288 288 290 291 292 292 292 293 293 293 293 293 293 295 296 295 295 296 298 298 298 298 297 297 297 297 296 296 296 295 295 293 289 292 293 294 294 294 294 294 293 293 292 291 290 292 292 290 291 290
288 290 291 292 292 291 291 289 289 289 289 289 289 290 289 289 290 290 292 290 289 290 289 289 290 290 290 292 292 291 290 290 289 290 289 287 284 282 283 289 291 291 291 292 292 292 292 292 293 293 295 295 295 294 295 298 298 298 297 297 297 287 283 286 290 295 295 294 293 294 294 294 295 292 291 292 292 292 292 292 291 291 291 292 292 291 290
290 291 292 290 290 290 289 288 289 289 290 289 289 290 291 290 290 291 291 290 291 291 290 289 290 291 292 292 290 289 289 286 285 285 283 281 279 278 279 284 288 286 290 290 289 291 291 292 292 293 294 294 294 294 294 296 297 298 297 293 296 296 290 286 292 292 293 292 293 294 292 294 294 294 293 293 291 291 291 291 290 290 290 290 291 291 290
289 288 288 289 289 289 289 289 289 290 289 289 290 292 291 290 290 290 290 290 289 289 290 290 292 292 291 290 289 288 285 280 279 279 280 281 279 277 277 281 285 287 288 290 291 291 291 291 292 294 294 293 293 294 294 295 297 297 297 297 297 296 291 290 289 294 293 293 293 293 293 292 293 294 293 291 292 290 290 290 290 290 290 291 291 291 289
290 289 290 291 290 289 289 290 290 290 290 290 290 290 291 290 290 290 289 289 289 289 290 291 292 289 287 286 283 281 279 283 288 288 283 279 279 280 281 282 285 287 289 290 290 290 291 291 292 293 293 293 293 294 294 295 296 297 297 297 297 295 295 294 292 293 294 292 292 292 292 293 293 293 293 292 291 290 289 289 289 289 290 290 291 291 288
290 290 290 291 291 291 291 291 292 291 291 290 291 291 291 290 289 290 289 289 290 292 291 290 289 285 283 281 278 277 279 284 285 283 280 279 279 279 282 286 288 289 289 290 290 291 292 292 292 292 292 292 293 294 295 295 296 297 297 297 296 295 295 294 293 293 293 292 293 293 292 293 292 289 290 292 292 290 289 289 289 289 290 289 290 291 290
291 291 291 291 291 290 290 290 291 292 293 292 290 290 291 291 290 290 289 290 291 290 290 289 287 284 282 279 280 278 279 281 280 278 277 276 276 278 282 287 288 288 288 289 291 291 291 291 285 285 290 292 293 294 294 295 295 297 297 297 295 294 293 292 293 293 292 293 292 292 292 289 289 290 292 292 291 290 290 290 289 290 290 289 289 289 290
289 290 291 291 291 291 291 290 290 291 292 292 292 292 292 291 291 292 291 290 290 290 290 289 287 285 284 283 283 281 279 281 282 281 280 277 278 280 283 285 287 288 288 288 290 291 290 291 284 281 287 292 293 295 293 283 295 296 296 297 296 295 294 293 293 293 292 292 291 292 290 291 292 292 290 291 291 290 290 291 289 290 289 289 288 288 289
290 289 290 291 291 291 291 291 290 290 291 291 291 290 291 292 292 292 292 291 290 290 289 289 289 287 284 281 279 278 279 277 274 274 274 273 277 281 285 286 288 289 289 289 291 291 291 287 282 286 293 294 295 295 290 282 286 295 297 296 295 294 293 293 292 292 292 292 292 293 293 292 291 291 290 291 291 291 292 291 289 289 290 289 289 289 289
292 291 291 290 289 290 291 291 290 290 291 292 293 293 292 291 291 290 291 292 291 289 289 289 288 288 287 286 286 285 282 279 276 274 274 276 281 283 286 288 290 290 291 292 291 291 291 288 290 293 294 295 294 293 288 281 284 296 296 296 296 295 293 293 292 291 291 292 292 292 293 292 291 291 291 291 292 291 289 289 290 289 290 290 290 289 289
291 292 291 291 291 291 291 292 292 291 291 290 291 293 293 291 291 291 292 292 290 287 289 289 288 288 288 288 288 289 290 287 282 277 278 281 284 286 288 290 292 291 290 286 289 290 288 282 287 294 296 295 294 294 291 287 288 293 295 295 295 294 294 292 292 293 292 292 291 289 293 291 291 291 290 291 292 291 292 291 290 290 291 291 291 290 289
291 292 292 291 292 292 292 292 293 293 292 292 292 293 292 291 291 291 291 292 292 289 289 289 289 289 290 290 290 291 289 288 286 286 284 285 286 287 287 287 292 292 291 290 290 289 286 285 289 292 295 295 295 291 293 286 291 294 295 295 295 294 294 293 292 292 292 291 291 292 292 292 291 291 290 291 292 292 291 291 290 290 291 291 291 291 290
291 290 290 291 292 292 292 291 290 291 293 293 292 292 292 291 292 292 293 292 291 289 289 288 286 290 290 289 289 288 288 288 287 287 285 287 288 287 287 289 293 292 287 285 284 284 287 287 287 286 294 295 294 285 285 289 292 293 293 294 294 293 294 292 292 292 292 292 292 293 292 293 293 292 291 292 291 291 291 291 291 291 291 291 291 290 290
290 290 291 291 291 291 290 290 290 291 291 292 292 292 292 292 292 292 292 291 291 290 289 289 287 284 286 287 288 288 289 289 288 288 287 288 288 289 289 291 293 291 282 287 289 290 290 290 290 291 288 290 291 281 281 291 292 292 293 293 292 293 293 293 293 292 292 292 292 293 293 292 293 292 291 291 291 290 290 290 291 290 290 290 291 290 290
290 290 290 290 291 291 290 290 290 289 290 292 292 292 292 292 292 292 292 292 292 291 291 290 289 289 288 288 288 289 290 290 290 290 289 291 291 290 289 289 291 289 283 286 288 289 290 291 291 288 281 281 281 281 289 292 292 292 292 292 292 293 293 293 292 292 292 292 291 292 293 292 292 292 291 290 291 290 289 291 291 291 290 290 291 291 291
292 291 291 291 290 290 290 291 291 292 292 291 291 292 292 292 292 292 292 292 292 292 290 290 290 290 290 289 289 291 292 292 291 290 289 289 288 290 292 286 288 288 287 284 288 289 291 291 289 282 282 281 281 281 291 291 291 291 292 292 292 293 293 293 292 292 292 292 292 292 292 292 291 292 290 291 289 291 290 290 290 291 290 291 291 291 291
292 292 290 286 290 292 292 292 291 291 290 291 292 293 292 292 293 293 292 292 292 293 293 292 292 292 291 291 291 290 290 290 290 290 291 292 291 292 291 287 290 287 285 283 289 290 291 284 282 281 281 281 281 286 291 290 290 291 291 292 292 291 292 293 292 293 292 292 292 293 292 292 292 292 292 292 292 291 290 289 290 291 291 290 290 290 291
291 291 291 291 292 292 291 291 290 291 291 292 292 293 292 292 292 293 293 292 292 292 292 292 291 292 292 291 291 291 291 292 292 291 290 291 290 288 287 284 283 282 284 288 290 290 290 288 284 281 281 281 282 290 291 291 291 292 291 292 291 292 292 293 293 293 292 293 291 290 289 291 291 292 290 290 291 291 290 290 290 289 289 289 289 288 288
291 292 293 292 292 292 292 292 293 293 292 292 292 292 292 292 291 292 292 291 291 291 292 292 291 291 291 290 291 291 292 291 290 292 292 290 291 290 289 290 288 284 283 284 284 284 282 282 282 281 281 282 286 290 290 291 291 291 292 291 291 292 292 292 293 293 292 291 291 292 291 292 292 291 291 291 290 291 291 291 290 289 289 289 289 289 288
291 291 291 290 291 291 292 293 292 291 293 292 290 292 292 291 291 292 292 292 292 293 293 292 291 291 291 289 290 291 290 290 291 292 292 290 290 290 290 286 282 281 285 290 292 291 284 281 282 282 281 283 289 290 290 290 290 291 290 291 291 289 290 291 293 293 292 292 292 292 292 291 292 292 291 291 290 291 290 290 290 289 289 288 288 288 288
291 291 292 293 293 293 293 293 293 293 291 292 292 292 292 291 292 292 293 292 292 290 293 293 293 292 292 292 291 291 290 289 289 290 290 289 289 289 289 289 289 285 285 291 291 290 284 281 282 282 285 288 289 289 289 290 290 290 290 290 289 290 290 289 286 287 290 292 292 292 291 291 292 290 290 290 290 289 290 289 290 287 285 286 288 288 288
293 292 292 291 291 291 291 291 292 292 293 293 293 292 291 292 293 292 292 290 291 292 293 294 294 293 293 293 292 291 290 289 288 286 288 289 289 286 285 288 289 287 288 288 289 290 290 290 289 287 287 287 288 288 289 289 290 290 288 289 289 289 289 287 288 289 290 291 292 291 291 291 292 291 291 291 290 290 290 289 289 288 288 288 288 288 288
291 291 291 291 291 291 291 291 291 292 292 292 293 292 293 292 292 292 292 286 291 291 291 292 292 293 292 292 292 291 289 289 289 289 287 288 288 289 287 284 289 288 289 290 289 291 290 289 287 285 285 288 288 288 285 284 287 289 289 288 288 290 289 289 289 289 289 289 290 291 290 291 292 291 290 291 290 290 290 290 290 289 289 289 289 288 288
Wind_Speed
3 3 2 2 7 6 5 8 8 10 10 11 6 5 5 8 2 2 3 2 4 7 7 8 7 7 8 9 9 9 8 7 6 7 10 11 11 11 12 12 12 11 9 9 10 11 8 9 11 10 8 7 6 7 6 7 7 6 6 8 8 8 8 8 7 6 4 5 7 6 6 6 6 5 4 3 3 3 3 2 2 2 2 2 3 3 3
4 4 4 4 7 4 5 10 10 8 9 9 8 7 8 5 4 2 2 5 6 5 6 8 9 7 9 8 7 7 7 8 8 10 11 11 11 12 12 11 11 10 9 10 9 12 12 12 12 11 10 10 8 10 9 7 7 6 8 8 9 9 10 8 6 6 7 7 7 7 8 8 6 5 5 5 5 5 4 4 3 3 3 3 2 2 2
4 2 3 4 5 5 4 8 11 11 7 6 8 6 7 6 4 3 7 6 5 6 6 10 9 8 7 8 9 8 8 7 8 12 12 11 11 11 11 11 11 9 9 8 9 11 11 12 12 10 10 10 10 11 10 10 9 8 10 12 11 10 9 8 8 7 6 6 7 9 7 7 6 7 7 6 6 7 6 6 5 5 4 4 4 4 5
3 1 2 3 5 6 6 10 13 12 11 8 7 3 5 4 4 3 6 5 2 4 7 10 9 9 9 9 9 9 9 9 9 12 12 11 11 10 11 12 11 10 9 8 9 11 12 13 12 10 13 12 13 12 12 11 9 9 11 12 12 11 10 8 8 8 7 8 10 9 9 9 8 7 7 8 8 7 7 8 6 6 7 6 6 6 7
2 3 1 2 4 4 2 5 7 8 4 6 4 4 8 7 7 1 3 0 4 8 6 11 10 10 10 10 9 9 9 9 10 12 12 12 11 12 11 10 11 12 11 10 10 11 11 9 12 12 13 15 12 12 13 10 11 12 11 12 12 10 9 9 9 9 7 9 11 11 10 9 8 8 9 9 8 9 9 7 6 8 7 7 7 7 8
0 1 1 1 0 4 0 3 5 4 3 6 6 4 7 9 6 3 3 4 9 7 5 10 12 10 9 9 9 9 8 8 10 12 12 12 11 11 10 11 11 10 9 9 12 13 12 11 12 10 12 15 11 11 12 13 15 12 12 11 13 11 10 10 9 8 9 10 12 11 10 9 9 10 10 9 8 7 7 8 8 8 9 9 7 8 8
1 1 1 2 5 1 2 3 5 7 2 5 3 2 9 10 9 8 10 10 7 7 7 9 13 12 11 11 11 11 10 9 10 11 11 11 11 11 10 10 11 10 9 11 13 13 11 10 8 11 13 12 12 11 13 15 13 15 13 11 12 11 11 9 9 9 10 11 11 11 11 10 10 11 10 8 9 8 8 8 8 8 8 8 8 7 7
1 1 2 3 2 1 2 2 6 8 2 8 3 3 7 11 8 2 9 9 9 10 11 10 10 13 12 12 13 12 11 10 8 10 10 10 9 10 9 10 9 9 8 9 10 11 8 10 10 12 11 9 13 12 13 14 11 12 13 12 12 10 11 10 9 9 9 10 10 9 11 10 10 10 9 9 9 6 7 8 7 7 8 8 8 8 6
1 1 3 5 4 3 5 3 6 7 4 7 4 2 4 11 6 4 8 10 11 12 12 11 9 8 10 12 11 12 11 10 9 9 9 8 9 9 8 8 8 8 8 8 7 9 10 10 9 10 9 9 11 12 13 12 13 11 10 11 9 10 10 9 9 9 9 9 9 8 7 8 8 8 8 8 7 4 7 7 8 8 7 7 7 7 8
1 3 4 4 2 1 4 2 3 3 4 5 6 3 1 8 7 5 8 10 12 13 12 10 9 5 11 9 6 7 10 8 8 9 8 8 8 8 8 8 8 8 8 8 8 8 10 10 9 7 8 10 12 12 12 11 12 11 11 11 9 9 9 9 8 7 8 8 8 7 7 8 7 7 6 5 6 5 6 5 7 6 5 5 6 6 7
1 2 3 3 2 2 1 9 9 6 4 5 2 2 3 7 7 4 9 10 8 8 9 5 1 1 7 4 3 5 9 8 7 8 9 9 9 8 7 7 8 8 8 9 9 9 10 10 8 9 10 13 13 13 11 9 10 11 10 8 8 8 8 8 7 7 7 8 9 7 7 7 7 7 6 5 5 5 5 5 5 4 4 4 5 5 6
2 3 4 4 4 3 8 11 10 8 6 2 3 3 3 5 7 3 5 8 8 3 3 6 9 3 9 9 3 4 7 8 7 8 9 9 9 9 8 8 8 9 9 10 11 11 11 9 6 6 7 10 11 10 8 9 10 9 8 7 7 7 7 7 6 6 7 9 9 7 5 6 7 6 5 5 5 5 5 3 4 4 5 5 5 5 5
3 5 4 3 2 1 6 9 11 8 1 5 1 3 3 5 2 5 4 4 3 2 2 3 7 6 9 8 5 4 5 7 10 9 8 6 6 7 8 8 8 9 9 10 11 11 9 8 7 7 6 8 10 9 8 10 11 8 7 7 7 7 6 7 9 9 7 7 8 7 5 6 6 6 5 5 5 5 4 3 4 4 4 5 3 4 3
4 2 5 4 2 0 7 11 11 3 2 3 3 3 3 4 4 4 5 7 7 9 10 8 10 8 8 8 6 4 4 5 5 5 5 6 8 8 7 8 8 9 10 11 12 12 10 9 8 7 8 11 10 9 10 11 9 7 7 7 7 8 9 10 10 8 8 7 6 6 6 6 7 7 6 6 5 5 4 4 5 5 4 3 3 2 0
1 2 3 2 4 1 11 18 5 5 3 2 1 2 4 3 5 7 7 8 7 12 13 12 12 10 8 7 6 4 3 4 6 6 6 6 6 7 7 8 7 7 8 9 10 10 9 8 8 8 11 12 11 10 12 10 8 8 8 8 8 8 9 9 9 9 8 8 7 6 7 7 7 7 5 5 5 5 4 3 4 3 3 2 1 1 2
2 5 5 4 2 6 10 9 5 6 3 3 3 0 4 4 6 7 7 8 7 10 14 12 11 9 8 6 6 6 6 6 4 4 4 5 5 6 7 7 7 7 8 7 8 8 8 7 7 7 11 12 11 12 12 7 8 8 8 9 8 8 8 8 9 8 8 8 7 7 7 6 6 5 5 3 3 3 3 3 2 2 2 2 2 2 3
4 3 3 2 2 4 5 5 3 4 6 4 4 6 7 8 7 7 8 10 9 10 13 11 10 10 8 7 5 4 2 1 3 5 5 4 5 5 6 6 6 7 8 8 8 8 7 7 7 7 8 11 12 12 7 6 6 7 7 8 8 9 9 8 8 7 6 6 6 6 5 5 5 4 4 4 3 3 2 2 2 1 1 2 2 2 3
7 9 5 3 5 6 6 6 5 5 6 6 6 7 9 8 8 7 9 9 10 10 8 11 8 7 6 5 1 1 2 4 5 5 5 5 4 5 5 6 6 6 7 8 8 9 8 7 6 6 8 10 12 9 6 5 5 5 7 8 8 8 8 7 6 6 6 6 6 6 5 4 4 4 4 4 3 3 2 2 2 1 2 2 2 2 3
0 6 6 7 6 6 6 7 8 8 7 6 7 10 10 9 10 11 9 10 9 9 7 9 10 8 6 4 1 2 3 5 4 4 4 4 4 5 6 4 4 5 6 7 8 8 7 6 6 6 8 8 7 7 6 5 5 6 7 7 7 6 5 5 5 5 6 5 5 5 5 4 4 4 4 3 3 3 3 3 3 3 3 3 3 4 4
4 6 3 5 5 7 7 5 5 7 8 8 8 8 10 10 10 11 11 11 10 8 8 8 9 8 5 3 2 2 3 3 3 3 3 4 5 4 3 3 4 5 5 6 6 6 5 4 4 4 5 5 5 5 4 4 4 6 6 6 6 6 5 4 4 4 5 3 4 5 5 5 5 5 4 4 4 4 4 4 3 3 3 4 4 5 5
5 4 4 5 8 9 8 8 7 5 5 8 9 10 11 12 12 10 8 8 10 9 9 9 9 9 6 6 6 5 3 3 2 2 2 2 3 4 4 3 3 5 5 5 5 5 4 3 3 3 4 3 3 3 3 3 4 6 5 5 5 5 4 5 5 4 4 5 5 5 5 5 6 5 6 5 5 4 5 4 4 5 5 4 5 5 5
3 3 6 4 4 4 4 5 4 4 4 7 9 9 9 10 10 10 10 7 6 8 9 9 8 9 7 5 3 4 3 3 3 2 2 2 3 2 1 2 3 4 3 4 5 5 3 3 3 3 3 3 2 2 2 2 3 5 4 4 5 5 4 5 4 5 5 5 5 5 6 5 5 5 3 1 4 4 5 7 6 4 3 3 5 5 5
6 3 3 1 4 6 4 3 3 2 2 5 8 7 7 6 7 8 10 9 7 7 7 7 8 8 7 6 4 4 3 3 2 3 4 5 4 3 3 4 3 3 3 2 3 3 2 1 2 2 2 2 1 1 1 1 2 4 4 4 4 3 3 4 4 3 4 4 4 5 5 5 5 5 5 3 2 4 6 6 8 9 6 6 6 6 4
6 3 4 2 1 6 4 2 2 3 2 5 6 4 4 6 7 6 5 7 9 8 7 5 4 7 8 6 7 7 5 4 5 5 3 2 3 4 3 3 4 3 3 2 3 4 2 1 1 1 1 2 1 1 1 1 1 2 3 3 3 2 2 2 1 1 2 2 2 3 3 3 3 5 5 5 2 5 4 5 7 8 8 8 8 7 6
6 2 3 2 5 7 4 3 3 3 1 1 4 6 6 6 4 4 6 4 2 5 6 5 3 2 6 7 6 8 7 5 3 2 2 2 2 3 3 4 5 5 5 3 2 2 1 1 1 1 1 2 1 1 2 2 2 2 2 2 3 3 3 3 3 2 1 2 2 3 4 3 4 4 5 5 6 5 2 7 6 7 6 6 6 7 8
4 5 5 4 4 4 2 3 4 2 3 2 2 3 1 1 3 4 3 2 3 3 3 4 5 4 3 4 2 1 1 2 2 2 2 3 3 3 5 5 4 2 2 2 2 1 1 1 1 1 1 1 1 0 2 2 1 1 1 1 2 2 3 2 2 2 2 2 3 4 3 3 3 3 3 5 5 5 5 4 1 5 8 7 4 5 5
5 3 7 7 5 3 2 1 3 2 3 3 3 4 2 3 2 2 2 1 2 2 2 1 2 4 3 2 2 1 2 3 3 2 1 1 2 1 2 3 1 1 3 3 2 2 1 1 1 1 1 1 1 1 1 3 2 2 1 2 2 2 0 0 2 2 2 2 2 3 3 3 3 3 3 3 4 4 5 6 6 5 6 3 5 4 5
2 4 3 3 5 4 1 2 3 4 3 3 2 4 3 3 3 4 4 3 3 3 2 2 3 5 4 2 3 3 2 3 3 2 2 1 0 1 2 2 1 1 2 2 2 2 1 1 0 0 0 1 1 1 2 3 3 2 2 2 2 3 4 2 1 2 2 2 2 3 3 3 3 2 2 2 3 3 3 2 4 5 4 4 5 6 6
4 3 2 2 2 2 3 4 5 4 4 4 3 3 1 2 2 1 2 1 1 2 3 2 2 2 2 3 2 3 2 2 3 4 1 1 0 1 1 2 2 2 2 2 2 1 1 1 1 2 1 1 2 2 3 2 3 2 1 2 2 3 2 2 2 2 2 2 3 3 2 2 2 2 2 2 2 3 3 4 4 4 3 3 5 5 8
3 2 2 4 3 4 6 4 3 3 3 2 2 2 2 1 1 1 1 1 1 2 2 3 3 3 2 3 4 4 4 3 2 0 0 0 0 1 1 1 1 2 2 3 3 2 1 1 1 3 2 1 2 2 4 2 2 2 1 1 2 2 2 2 2 2 2 3 3 0 2 2 2 2 2 3 3 3 4 3 4 2 4 5 6 6 7
2 2 4 3 4 5 5 3 2 2 2 1 2 1 1 0 1 3 3 1 2 2 3 3 3 3 4 5 3 1 0 0 1 1 1 2 2 1 1 1 3 4 3 3 2 2 2 2 2 3 3 2 2 3 4 2 1 2 1 2 3 4 3 2 2 2 2 2 2 3 3 3 3 2 3 3 4 4 4 4 3 3 4 6 6 6 6
4 4 4 4 3 2 2 1 2 3 2 1 2 3 4 3 4 4 3 3 4 3 3 4 5 6 4 2 2 2 1 0 1 1 2 1 2 2 2 2 1 2 2 2 2 3 3 3 4 4 2 2 3 3 3 3 1 1 1 2 2 3 2 4 2 2 1 2 2 2 3 3 3 2 2 3 2 3 3 3 2 3 4 5 6 6 6
4 3 3 2 2 1 0 1 1 2 2 3 3 2 1 2 3 3 1 1 1 3 4 5 5 3 2 2 1 1 0 1 1 2 4 4 2 2 2 2 3 3 2 4 4 3 3 5 5 4 3 3 3 3 3 3 2 1 1 2 2 2 2 2 2 1 1 1 2 2 3 3 2 1 2 2 3 2 2 3 3 3 4 5 4 4 5
2 3 1 1 3 2 2 2 1 1 1 1 1 2 2 2 2 2 1 1 2 3 5 5 4 2 1 2 2 2 1 0 2 2 2 5 6 3 1 3 3 4 4 4 4 4 4 5 6 5 4 4 4 3 3 3 2 2 2 2 2 2 1 2 1 0 1 2 2 1 1 2 2 1 1 2 1 2 3 1 2 4 4 4 4 4 5
1 2 3 3 2 2 2 2 3 3 1 0 0 1 1 1 1 2 1 3 4 3 1 2 3 2 4 4 4 4 4 4 5 3 3 4 5 4 3 3 3 3 5 5 5 5 6 6 6 5 4 4 4 3 3 3 3 2 2 3 3 2 2 1 1 1 1 2 2 2 1 2 1 1 1 1 2 2 1 1 2 4 4 4 4 5 6
1 2 1 2 2 2 3 3 2 1 2 2 1 1 1 0 1 2 3 3 2 2 2 3 2 4 4 5 4 6 6 6 5 5 4 5 4 2 2 3 4 5 5 6 4 3 3 4 5 5 4 3 3 3 3 3 3 2 3 3 3 2 2 2 2 2 1 1 2 2 2 1 1 2 1 2 2 2 2 1 2 4 3 3 4 5 5
1 2 2 2 2 2 2 2 2 2 2 1 1 1 1 2 3 2 2 2 2 3 3 3 3 4 6 6 3 2 3 4 3 2 2 1 0 1 2 3 5 5 4 5 2 1 2 1 1 5 5 3 3 3 2 4 2 2 3 3 3 2 2 2 1 1 2 1 1 1 1 2 3 2 2 2 2 2 1 2 4 3 3 3 4 4 6
1 1 1 2 1 1 2 1 1 2 2 2 2 3 2 1 2 3 3 2 2 3 3 4 4 2 1 1 2 5 6 5 5 5 3 3 2 2 3 3 3 3 3 2 1 1 1 2 2 4 3 2 2 3 3 4 3 2 3 3 3 2 2 2 2 2 2 2 1 2 3 3 2 2 2 2 2 3 2 2 3 3 3 3 3 4 4
2 1 0 1 1 1 1 0 2 1 2 3 3 2 1 3 3 2 3 3 2 3 3 4 3 3 3 3 3 3 6 6 5 4 4 4 3 3 3 3 5 5 5 2 1 3 2 2 2 1 2 2 3 3 4 4 4 2 2 3 3 2 2 2 2 2 2 2 3 3 2 2 2 2 2 2 3 3 3 3 3 3 4 2 3 4 4
2 3 3 3 2 2 2 2 2 2 2 2 2 3 1 1 2 3 3 2 2 3 3 3 4 4 4 5 4 4 4 2 3 4 4 3 3 3 4 4 4 4 4 5 5 4 2 1 2 2 1 3 4 3 3 4 3 2 2 3 3 3 2 2 2 2 2 2 2 1 2 3 2 2 2 2 2 2 2 2 3 3 3 2 4 4 4
2 3 2 2 3 2 3 3 4 2 2 2 3 4 2 2 2 2 4 4 2 4 4 4 4 5 5 5 5 3 0 1 2 2 3 3 3 2 2 3 2 1 1 2 2 2 2 2 2 2 2 3 3 2 2 3 2 1 2 2 3 3 3 2 2 2 2 2 2 2 3 3 3 2 2 1 2 2 2 2 2 3 3 3 4 4 4
2 2 2 3 3 3 4 3 3 5 5 3 3 3 3 3 4 4 3 1 2 3 4 5 7 5 2 2 2 2 3 3 2 3 4 4 3 2 2 3 1 0 2 1 2 2 2 3 3 3 3 3 2 4 2 2 2 1 2 2 3 3 3 3 2 2 2 2 2 2 2 2 2 3 1 1 2 2 2 2 2 3 3 3 3 4 4
1 2 3 3 3 3 3 3 3 4 6 5 3 4 3 2 4 4 3 2 2 2 3 3 4 5 4 4 3 4 3 3 3 3 3 5 6 5 5 4 1 2 4 0 0 1 2 2 2 3 3 3 2 6 4 2 2 2 2 2 3 3 3 3 3 3 2 2 2 2 2 2 2 1 2 1 3 3 2 2 2 2 2 2 3 3 3
2 2 2 3 4 3 3 3 3 2 4 4 1 2 3 2 3 4 4 4 3 3 4 4 4 4 4 4 4 4 4 3 3 3 3 3 3 6 8 6 5 2 4 4 3 3 3 2 3 3 4 5 4 6 3 2 2 2 2 2 3 4 4 4 4 3 3 3 2 2 3 2 1 1 2 2 2 2 2 2 2 2 2 2 3 3 3
2 2 3 3 4 3 3 2 3 4 4 4 4 3 3 3 2 3 3 4 4 3 3 4 4 4 4 4 5 5 3 0 2 2 2 3 4 2 3 5 4 3 3 4 3 3 3 3 3 5 5 6 5 5 3 2 2 2 2 2 3 4 4 4 4 3 3 3 3 2 2 2 2 1 2 2 3 3 2 2 1 1 1 1 2 2 3
3 2 2 3 3 3 2 3 3 2 3 3 3 1 1 2 2 2 2 3 3 4 4 4 4 5 4 4 4 3 2 3 3 4 5 4 5 2 2 2 1 1 1 3 3 3 2 2 2 4 5 6 6 5 3 2 1 2 2 2 3 4 4 4 4 4 4 4 3 3 3 3 3 3 2 2 2 2 2 2 3 2 2 2 1 2 1
3 3 3 3 3 3 2 2 2 2 2 2 3 2 0 1 1 2 2 3 4 5 4 4 5 5 4 5 4 3 3 3 3 4 5 5 5 6 5 4 4 3 3 3 2 2 1 2 4 5 5 6 6 3 2 2 2 2 2 3 3 4 4 4 5 4 4 4 4 3 2 2 2 3 2 2 2 2 3 2 2 2 1 2 1 1 1
3 4 3 2 3 3 2 2 2 3 3 3 3 3 3 2 1 2 2 3 3 4 4 3 3 3 4 4 5 5 3 1 2 1 2 2 2 2 1 2 2 3 4 4 4 3 2 3 3 5 5 5 4 3 2 2 2 2 2 2 3 3 4 4 4 4 4 4 5 4 4 3 3 3 3 2 2 2 2 2 2 2 2 1 1 1 1
2 3 3 3 3 3 2 2 2 2 2 2 2 2 2 2 2 2 2 2 2 2 1 1 2 2 2 3 3 3 3 3 4 1 2 1 1 1 1 1 2 3 3 2 1 1 3 4 5 5 5 5 3 2 1 1 1 2 2 2 2 2 3 2 3 3 5 5 5 5 5 4 4 3 3 3 3 2 2 2 2 2 2 2 1 2 1
1 1 1 1 1 1 1 1 1 2 1 1 2 2 1 2 3 2 1 2 1 1 1 1 1 1 1 1 2 2 2 3 4 4 3 3 2 2 1 1 0 2 2 0 1 1 3 3 4 5 4 3 2 1 1 1 1 2 1 2 2 1 2 2 3 3 4 4 5 5 4 5 3 4 3 2 2 2 3 2 1 4 4 1 2 2 2
1 1 2 1 1 1 1 2 2 2 2 2 2 1 1 1 2 3 3 2 1 1 1 0 1 1 1 1 1 1 1 1 1 2 2 2 2 2 1 1 1 1 1 1 1 1 1 2 1 3 3 2 1 1 1 1 1 2 2 1 2 2 2 4 4 4 5 4 4 4 4 4 5 5 4 3 3 2 2 1 2 2 3 2 2 2 2
0 1 1 1 2 2 1 1 1 1 1 1 1 1 1 1 1 2 1 2 1 1 1 1 1 2 2 1 1 2 1 1 0 1 1 1 1 1 2 1 1 1 2 1 0 1 1 1 1 1 1 0 0 0 1 2 2 1 1 1 1 1 2 2 3 2 3 4 4 3 5 5 3 3 3 3 3 4 3 2 2 2 2 2 2 2 2
Wind_Direction
131 148 124 100 89 73 54 35 24 19 7 27 36 357 349 330 278 283 17 205 173 162 150 117 99 107 105 99 93 94 95 90 75 68 67 63 57 50 47 51 53 46 35 33 45 52 44 66 78 69 58 54 72 86 75 79 97 94 89 94 93 97 96 91 83 72 66 80 84 79 69 68 63 61 76 84 84 93 92 92 81 101 116 153 156 155 145
152 135 121 122 125 136 43 29 28 31 34 42 38 37 17 2 329 291 174 143 75 71 86 82 91 94 97 95 95 88 77 77 79 74 66 63 55 53 51 51 52 40 35 51 54 72 69 73 73 70 64 62 62 68 62 65 74 80 92 83 87 84 82 72 67 68 69 64 74 73 66 61 47 39 49 67 67 64 61 56 61 66 91 98 102 121 139
146 107 142 114 121 129 74 33 32 29 36 51 31 19 12 357 68 130 155 121 65 37 60 94 90 89 87 80 75 71 75 76 77 81 74 65 63 61 59 57 52 51 42 44 58 64 66 67 68 72 73 76 76 73 74 76 81 79 84 87 81 77 78 78 78 69 70 67 57 70 77 71 62 61 56 56 62 60 55 52 50 52 61 71 75 81 85
189 141 80 133 130 125 92 38 25 16 16 23 348 10 356 352 337 125 123 132 113 79 91 86 84 77 70 73 71 68 67 70 71 75 72 65 58 55 58 61 56 47 43 36 44 58 65 75 71 75 86 83 77 75 76 71 67 72 80 81 83 82 80 67 66 60 65 73 75 67 66 66 61 59 56 54 55 52 52 49 45 48 52 53 62 73 81
223 89 12 333 169 155 203 39 8 342 10 5 14 22 11 4 322 271 165 144 103 132 125 98 76 81 74 61 55 69 67 64 73 73 71 71 65 60 53 51 59 60 53 49 53 61 57 55 75 74 79 73 69 80 78 76 73 70 73 80 82 73 73 72 62 75 71 78 79 73 67 65 65 63 62 59 53 54 52 41 44 49 43 45 51 62 74
161 20 16 253 60 245 109 70 5 320 333 4 27 28 352 343 339 292 342 113 127 130 123 111 107 81 70 73 58 49 57 74 75 77 77 76 75 68 62 62 56 55 63 62 58 57 60 59 67 68 70 80 73 71 80 76 74 66 68 63 71 70 61 59 71 69 75 77 75 71 64 60 62 63 62 58 57 58 57 50 46 47 43 42 44 55 66
132 98 161 161 226 254 118 200 10 351 298 0 299 313 18 3 12 99 102 114 104 85 98 102 107 100 84 65 54 41 37 61 74 76 72 66 65 68 65 57 57 52 42 62 67 62 53 52 62 74 71 71 79 69 73 75 73 79 67 67 64 61 64 61 60 68 75 75 75 75 73 67 61 62 63 58 54 51 56 54 49 44 38 41 36 41 50
92 140 163 205 123 20 329 205 24 358 258 350 304 198 28 15 8 50 119 117 108 108 109 104 103 104 99 75 49 34 36 34 41 70 70 64 57 57 56 60 50 51 47 52 65 72 64 62 57 63 73 82 82 77 71 75 72 73 76 70 70 64 62 59 60 59 60 64 65 75 81 72 68 66 61 61 61 57 65 63 54 48 42 36 35 36 37
211 94 84 78 126 151 46 19 10 14 346 336 343 356 6 9 4 120 124 118 116 113 111 115 116 115 96 70 45 16 23 39 41 53 64 70 68 66 53 48 57 66 58 53 46 68 74 67 60 63 70 63 72 77 78 81 81 75 75 74 60 68 70 58 56 54 51 60 65 55 66 76 71 67 68 62 58 52 67 64 61 52 44 38 26 21 19
301 135 124 131 181 64 20 353 325 8 340 320 294 278 52 11 17 97 120 116 124 123 123 127 136 154 88 68 43 359 358 20 44 50 58 61 66 67 66 60 60 58 59 59 53 69 72 63 56 52 60 71 71 67 67 69 74 75 74 77 77 69 64 64 59 59 67 58 60 60 60 70 72 73 67 67 62 35 61 65 69 66 60 54 44 31 19
168 68 92 63 63 96 35 330 329 327 333 299 261 241 80 353 4 97 123 117 119 120 130 136 354 160 93 101 80 342 350 358 15 37 28 44 56 54 56 80 85 76 73 78 79 75 75 73 71 77 80 80 78 78 72 68 72 74 67 66 68 76 80 78 73 69 67 77 68 47 56 65 72 73 76 70 60 61 68 70 76 77 66 61 51 39 24
55 108 90 95 41 12 342 327 315 320 300 204 172 219 49 342 347 74 111 124 122 105 102 81 55 40 139 140 120 350 349 354 7 38 21 11 31 56 61 54 77 92 93 90 80 76 74 70 62 68 74 84 88 90 88 86 78 73 67 66 64 64 65 67 72 68 74 77 76 71 52 61 64 68 69 79 87 84 66 62 70 69 77 62 41 31 15
62 84 100 108 90 51 343 316 318 314 128 188 324 40 327 339 359 117 108 71 46 82 112 100 98 62 87 101 107 57 6 25 10 6 20 11 17 45 64 78 82 84 86 87 88 87 85 84 80 66 64 79 78 77 80 79 79 83 91 93 88 82 76 73 71 69 61 63 76 78 77 73 70 60 56 60 61 73 93 94 92 81 60 74 76 58 20
43 13 87 96 102 64 324 322 317 277 202 37 32 330 324 290 111 76 69 60 53 61 62 72 96 109 97 99 82 47 11 5 336 356 9 35 59 61 62 70 87 93 89 90 92 90 91 96 98 93 92 89 86 81 78 75 74 80 81 80 83 85 84 79 74 69 68 67 66 68 64 67 68 66 59 58 55 52 51 57 63 73 83 91 85 84 92
182 31 84 79 39 10 13 323 300 6 30 55 6 37 38 91 85 86 71 81 83 94 84 77 86 84 78 76 74 62 357 358 3 1 8 28 45 52 59 61 53 77 86 82 83 88 90 93 94 96 94 90 89 86 82 82 85 85 84 83 82 84 83 84 83 78 71 67 66 63 62 60 62 61 54 54 52 52 55 59 57 56 65 61 113 148 188
55 45 45 51 342 301 335 349 38 343 3 304 268 227 76 38 71 83 81 65 75 86 101 102 87 80 84 69 52 40 19 5 25 41 30 26 41 59 67 77 74 64 74 72 74 73 80 83 87 91 93 91 88 86 83 83 85 87 89 89 89 86 82 82 81 79 78 73 69 64 62 66 67 66 57 51 55 46 39 30 28 32 27 16 354 351 340
50 70 78 36 317 317 341 360 9 22 21 46 76 100 107 104 79 83 87 90 75 83 99 85 85 84 64 71 57 54 10 65 81 78 66 47 34 36 53 70 76 78 81 80 77 70 61 71 76 78 86 95 95 94 97 102 101 99 96 92 90 87 88 86 85 86 81 77 75 73 70 66 62 55 45 27 39 42 30 35 25 14 14 357 343 339 338
94 79 72 85 42 26 25 45 35 44 50 43 67 88 95 89 100 94 105 102 100 91 87 102 88 91 110 100 115 135 99 88 78 88 89 83 79 74 76 73 65 74 83 84 88 84 68 58 70 73 85 93 96 100 106 102 102 106 101 94 85 81 78 74 73 77 80 79 76 73 70 66 61 52 39 33 31 29 18 20 24 16 8 357 349 352 346
259 72 25 34 27 17 38 54 58 63 62 64 73 84 87 96 100 100 101 109 108 115 113 113 121 122 126 124 93 30 60 66 70 71 84 81 83 97 92 77 80 80 79 80 77 74 68 43 52 63 73 78 88 98 98 100 100 97 93 88 84 78 74 73 67 61 59 52 57 63 52 45 50 47 43 43 47 44 32 22 20 12 7 2 356 360 353
67 97 46 47 57 67 52 46 63 70 74 78 78 91 101 104 105 113 121 121 120 127 120 127 127 131 137 131 148 102 102 116 120 117 116 121 115 92 97 112 101 96 92 95 91 88 77 49 48 61 69 77 80 91 96 96 96 94 88 84 88 86 85 83 72 65 65 50 27 45 35 32 29 30 34 34 42 43 32 25 11 12 5 4 1 357 351
88 99 88 106 93 70 62 61 59 65 93 104 101 105 106 110 112 115 125 134 141 145 142 145 141 142 166 179 176 156 141 126 113 110 99 97 111 133 145 137 129 117 114 97 84 83 76 55 59 70 66 67 66 71 73 72 80 82 78 76 77 75 70 70 66 59 54 50 44 32 32 32 38 31 18 17 20 33 44 23 13 359 3 4 7 2 350
108 113 143 180 111 106 87 63 45 62 79 110 110 110 110 115 122 130 131 134 141 143 151 155 156 157 172 186 168 142 144 147 139 140 133 141 141 138 96 98 93 92 76 97 93 80 53 24 26 48 54 54 36 58 59 72 83 92 88 80 74 64 57 56 49 45 46 48 37 34 30 30 32 45 89 335 333 354 12 13 354 330 303 327 342 346 336
111 126 110 297 84 97 89 102 64 68 90 118 117 115 119 120 125 137 138 138 145 155 165 174 168 168 170 172 162 147 165 164 176 183 167 161 164 150 142 130 121 111 99 90 103 95 77 7 21 29 65 53 67 53 84 79 85 101 101 87 79 77 66 59 44 42 59 55 46 39 31 20 19 15 17 80 175 279 288 298 314 321 311 287 284 273 292
59 68 134 174 109 118 135 155 135 110 119 123 109 101 111 136 144 151 149 151 159 165 168 178 198 175 170 165 169 168 172 183 184 187 198 195 153 143 153 151 140 138 142 163 148 128 114 109 66 24 68 86 91 153 165 138 91 110 110 107 98 94 89 103 137 75 78 78 48 35 31 19 8 6 16 7 18 161 214 299 303 308 309 307 307 308 293
111 143 140 133 106 111 108 113 99 100 94 125 139 152 155 156 164 170 160 161 167 168 171 163 142 181 163 160 180 176 172 180 186 154 150 141 145 167 169 166 165 170 171 160 103 89 95 89 55 354 70 72 70 171 181 179 172 140 132 134 135 140 141 151 146 149 143 96 45 33 26 12 15 17 18 13 10 360 153 190 241 279 292 294 297 303 303
110 117 100 98 86 79 103 131 103 119 152 167 126 115 96 187 147 169 178 161 170 170 172 160 157 158 171 158 176 49 95 131 137 162 178 151 154 171 181 185 178 161 125 116 121 114 115 92 36 344 36 43 39 109 172 171 171 126 133 137 145 137 131 119 89 79 74 51 28 26 22 13 14 8 15 16 5 10 360 16 151 214 217 218 250 301 316
73 70 119 101 87 102 218 145 107 121 63 42 74 93 88 107 125 111 92 106 99 137 153 125 97 121 126 115 116 113 181 135 153 181 163 190 206 26 14 3 16 125 151 151 154 141 129 113 111 34 19 33 8 304 181 159 158 143 145 165 149 107 129 229 74 80 68 48 36 30 25 19 22 13 21 15 23 12 15 24 22 3 15 46 127 85 352
49 19 4 131 153 202 186 86 84 90 79 81 112 106 108 127 130 131 128 135 133 110 106 112 148 157 157 152 161 145 137 186 192 174 220 194 58 338 330 332 275 205 189 181 148 146 161 113 84 297 312 328 327 287 237 183 156 143 143 158 155 138 142 172 119 82 71 60 56 42 24 27 16 20 4 11 14 21 12 2 8 12 15 16 348 348 327
13 5 359 9 10 46 64 95 90 71 62 50 64 79 107 144 81 128 128 111 119 147 152 129 115 138 153 145 184 192 186 189 206 224 198 104 141 299 301 274 256 230 214 205 193 160 171 182 272 260 223 8 312 298 269 189 159 159 144 135 134 121 112 89 71 61 56 62 56 39 27 10 14 30 41 35 18 11 14 15 9 360 4 3 2 3 356
1 338 52 48 59 102 104 81 74 58 60 47 69 48 18 11 213 256 295 178 187 203 157 140 150 153 161 179 208 208 206 213 233 319 323 281 5 341 315 283 236 218 213 214 209 197 221 217 234 263 261 313 303 290 277 228 138 153 120 105 94 91 88 73 67 47 42 50 65 133 34 25 26 27 37 39 27 16 11 12 6 358 355 17 14 15 11
44 46 57 66 68 74 101 116 111 105 96 135 163 157 57 151 277 278 260 203 204 216 173 182 171 164 193 213 197 178 231 340 307 314 349 10 340 315 293 246 244 257 242 235 206 214 236 250 242 262 283 287 291 287 282 268 150 147 142 121 112 76 79 97 38 29 43 52 58 34 35 16 31 33 33 30 27 17 14 9 14 5 7 14 15 19 11
84 52 60 55 44 64 86 115 161 175 186 132 177 225 221 221 243 255 241 222 225 203 172 181 190 203 207 173 161 173 196 111 338 335 332 273 272 284 271 266 262 268 271 253 241 242 245 256 265 267 275 273 272 280 282 279 218 181 109 116 116 131 147 219 169 116 57 82 70 54 36 17 25 28 44 38 28 20 14 16 7 7 9 8 12 13 360
119 101 79 52 63 59 325 76 91 134 181 195 227 281 307 263 262 270 263 230 181 193 202 208 216 212 172 151 151 144 73 31 312 277 286 292 270 215 243 245 241 238 241 243 251 252 236 245 260 273 268 266 266 267 269 271 254 191 141 117 116 114 128 117 39 113 127 93 65 41 35 25 5 31 55 46 29 14 29 24 18 10 2 8 10 5 11
84 47 58 184 227 278 278 276 197 242 231 272 309 300 288 281 277 289 260 201 211 196 210 212 210 157 141 143 122 107 129 220 273 272 302 299 304 288 209 225 239 242 249 254 249 242 235 239 250 256 258 256 258 259 260 254 236 198 153 143 132 130 123 116 176 308 47 66 75 104 26 23 354 29 72 65 47 41 30 14 24 13 15 11 2 353 10
240 250 252 279 258 252 236 250 207 198 199 107 160 224 227 273 271 272 269 227 221 222 188 168 163 144 142 140 156 170 180 217 246 261 275 277 286 291 304 300 282 274 272 259 245 251 248 246 241 242 247 249 248 243 243 243 228 196 150 140 133 112 102 96 73 50 46 64 13 4 4 1 34 87 67 21 63 64 49 21 16 16 16 12 5 0 7
239 259 271 266 241 224 227 231 254 198 170 199 231 306 326 283 214 218 221 230 242 200 189 164 145 141 156 168 189 199 209 229 234 237 258 266 273 295 299 284 280 281 284 296 284 268 266 244 220 214 226 231 237 234 225 222 207 191 143 143 133 124 105 94 98 110 101 26 18 13 14 48 52 76 62 69 72 63 50 26 32 28 19 16 6 9 13
7 313 300 281 281 244 226 216 206 185 193 198 238 233 229 207 240 260 266 254 228 213 186 164 159 187 213 216 217 216 229 227 214 211 223 224 293 271 265 271 273 273 284 296 323 10 330 18 188 186 212 217 217 219 168 204 212 157 147 150 141 138 123 116 110 112 108 70 41 62 99 146 121 103 72 63 67 74 41 39 40 30 28 28 24 19 21
321 302 295 317 312 242 237 249 178 190 190 224 225 230 262 276 247 253 253 246 226 203 189 196 207 207 181 127 196 227 238 225 221 229 233 237 221 233 249 250 272 272 278 290 334 271 359 10 232 203 204 201 186 178 164 200 200 167 153 156 151 141 126 112 120 116 104 80 61 74 80 93 102 96 77 67 70 68 64 71 53 33 36 36 39 37 29
359 333 332 11 309 296 305 154 169 213 229 262 298 306 238 243 263 247 244 238 204 176 186 202 193 200 202 209 223 225 242 236 212 197 209 218 209 224 260 273 277 268 270 288 298 292 307 331 341 285 206 179 159 148 140 165 199 161 147 158 163 156 130 124 109 105 97 98 92 88 92 87 84 96 91 80 78 86 80 57 44 37 39 35 43 48 38
303 320 325 341 336 347 323 303 267 255 250 240 258 282 334 255 243 245 256 248 177 179 197 187 194 216 214 219 226 236 228 175 163 176 189 189 203 247 271 265 241 245 252 253 253 260 272 321 272 257 197 160 165 148 145 151 167 137 160 176 176 164 140 133 139 126 123 127 116 166 108 108 111 114 108 99 91 77 65 58 45 47 51 32 43 53 51
285 308 323 315 298 289 270 274 274 270 253 242 228 243 229 240 253 256 252 250 185 175 189 201 212 230 227 222 225 238 152 140 167 172 168 173 208 238 283 303 313 209 220 222 235 240 229 238 252 244 195 178 172 155 143 147 191 150 175 179 185 175 158 156 141 134 131 136 134 127 118 126 129 132 130 129 102 86 61 48 52 55 53 52 49 47 55
307 288 287 290 288 289 294 293 298 291 275 252 261 263 240 219 217 241 262 260 176 183 199 210 224 241 275 259 253 250 238 209 193 189 191 222 246 259 269 277 271 353 91 166 188 215 222 210 214 232 229 191 174 145 152 155 188 179 189 182 187 179 164 149 159 132 127 137 144 142 140 156 133 128 134 104 99 97 73 67 69 66 61 53 50 48 48
267 285 295 288 292 286 288 288 283 280 289 290 290 280 269 228 225 241 249 234 216 203 215 228 216 228 240 234 230 241 238 209 212 212 226 235 234 239 250 277 182 146 146 252 251 253 232 235 216 215 205 218 165 140 176 210 199 195 207 189 188 185 172 161 155 150 144 152 156 163 163 159 152 139 122 104 102 108 98 79 62 66 64 62 62 59 53
292 268 268 282 289 299 298 288 283 270 271 284 328 297 279 256 233 233 231 236 234 225 229 230 219 219 217 217 223 241 238 211 210 209 248 270 235 215 221 241 261 212 189 246 250 249 248 238 233 186 178 203 170 170 201 210 201 212 202 204 194 191 175 161 163 170 147 146 155 168 158 155 173 155 140 135 127 116 114 107 91 90 92 83 72 64 57
309 305 298 288 293 297 288 283 289 294 295 303 295 280 264 265 247 221 234 235 243 238 223 235 237 227 214 205 218 231 251 232 224 184 230 256 285 308 162 204 231 253 211 220 246 243 243 235 202 185 190 188 183 188 217 207 215 218 218 207 201 195 183 171 167 167 152 143 141 139 144 164 164 160 160 129 130 137 136 131 120 123 113 87 74 65 58
296 293 283 287 275 270 281 285 283 275 277 288 286 254 242 247 242 229 213 238 256 256 249 244 243 237 228 228 238 249 256 243 226 219 239 260 273 310 92 185 196 206 178 197 258 255 253 179 192 206 198 187 172 192 216 207 218 221 218 217 203 195 189 174 167 168 161 152 146 151 160 162 167 175 169 166 151 150 136 139 141 118 91 87 65 58 61
284 286 269 257 273 272 282 278 258 254 271 289 302 313 243 250 250 252 250 243 252 261 259 250 247 247 233 230 229 227 230 233 221 203 226 235 246 258 244 222 248 234 230 244 263 251 296 199 196 197 192 180 186 209 204 214 214 229 222 220 204 194 189 176 173 169 164 156 148 144 134 163 170 164 161 165 164 159 149 166 138 124 122 109 116 133 116
273 271 282 289 296 307 304 281 295 320 330 323 318 305 315 300 278 270 255 243 237 240 247 249 249 241 231 227 229 238 260 285 292 280 157 211 228 241 239 221 223 204 224 239 242 243 194 206 191 181 180 172 188 212 206 223 225 228 223 211 204 195 187 179 180 175 169 153 160 169 167 168 173 174 170 177 168 166 164 157 152 142 136 145 139 113 102
243 275 293 292 283 288 299 317 317 324 334 338 301 303 327 304 275 254 243 238 236 244 272 282 270 261 243 230 233 234 220 228 243 269 65 38 358 330 329 242 201 202 213 229 191 130 155 174 167 177 174 194 217 201 214 210 225 230 223 209 201 196 190 187 184 178 174 173 175 173 172 173 172 171 171 175 177 171 160 150 152 145 136 143 146 140 137
277 271 302 353 349 345 332 320 308 305 303 297 297 319 322 307 313 334 337 318 306 313 333 347 312 262 224 194 193 211 205 220 238 265 271 270 293 296 289 282 283 176 203 194 127 118 126 168 170 167 181 206 220 236 220 218 211 209 210 195 202 198 191 179 156 176 186 180 183 180 179 183 179 173 172 175 177 189 201 185 131 102 107 163 162 159 153
3 4 357 339 310 299 263 261 297 301 293 290 300 327 312 293 313 329 334 318 308 7 7 298 182 147 110 108 116 104 160 187 210 231 247 238 228 236 254 220 174 210 190 184 159 159 162 190 178 174 184 199 201 216 243 235 228 192 195 208 190 188 161 181 195 192 199 197 192 188 187 186 186 184 192 187 186 192 182 174 156 164 176 183 181 175 166
234 274 283 287 299 299 293 279 272 268 274 273 280 338 3 334 340 337 330 288 337 72 328 331 96 72 28 33 42 66 62 54 12 160 197 231 210 186 136 162 178 156 197 207 160 168 182 170 163 188 224 223 197 194 169 187 218 211 200 193 190 188 195 201 199 205 196 196 203 194 189 194 187 190 198 198 194 196 194 195 195 195 190 184 179 178 172